Torna al catalogo

FENGYUN 1C DEB

AttivoSSO
NORAD 37430·DEBRIS·🇨🇳 China

Lanciato May 10, 1999 da Taiyuan Satellite Launch Center

Loading…

Prossimi Passaggi (prossime 24 ore)

TLE

ObsoletoSource: Space-Track

Epoca: Aug 31, 2026, 16:17 UTC

1 37430U 99025EGY 26243.67911828  .00002422  00000-0  93729-3 0  9994
2 37430  98.7514 324.3541 0017396  28.0460 332.1656 14.30924255654456

Traccia FENGYUN 1C DEB in tempo reale con AllMySat

Download on the App Store